Home > Weather > Hommersåk > Past weeks

Flag for Norway Past Weather in Hommersåk, Norway — Yesterday and Last 2 Weeks

Now
63 °F

Sunny.


Feels Like: 63 °F
Forecast: 59 / 67 °F
Wind: 2 mph from South

Location: Stavanger / Sola

Current Time: Jul 23, 2016 at 11:15:29 PM

Latest Report: Jul 23, 2016 at 10:50 PM


Visibility: 10 mi

Pressure: 30.15 "Hg

Humidity: 88%

Dew Point: 59 °F

Location of HommersåkLocation

Past Weather in Hommersåk — Graph

°F

Hommersåk Temperature Yesterday

Maximum temperature yesterday: 66 °F (at 4:20 PM)
Minimum temperature yesterday: 59 °F (at 9:20 AM)
Average temperature yesterday: 62 °F

High & Low Weather Summary for the Past Weeks

 TemperatureHumidityPressure
High79 °F (Jul 20, 3:20 PM)100% (Jul 10, 2:50 PM)30.15 "Hg (Jul 10, 2:50 PM)
Low50 °F (Jul 17, 1:50 AM)53% (Jul 20, 11:50 PM)29.45 "Hg (Jul 11, 5:50 AM)
Average61 °F82%29.88 "Hg
* Reported Jul 8 9:20 PM — Jul 23 9:50 PM, Hommersåk, Weather by CustomWeather, © 2016

Note: Actual official high and low records may vary slightly from our data, if they occured in-between our weather recording intervals... More about our weather records

Advertising

Hommersåk Weather History for the Previous 24 Hours

Scroll right to see more
 ConditionsComfort  
Time TempWeatherWind HumidityBarometerVisibility
9:50 PM
Sat, Jul 23
64 °FSunny.1 mph83%30.12 "Hg10 mi
9:20 PM64 °FSunny.5 mph83%30.12 "Hg10 mi
8:50 PM66 °FSunny.2 mph78%30.12 "Hg10 mi
8:20 PM66 °FSunny.3 mph83%30.12 "Hg10 mi
7:50 PM66 °FSunny.6 mph83%30.12 "Hg10 mi
7:20 PM66 °FPassing clouds.8 mph83%30.12 "HgN/A
6:50 PM68 °FSunny.5 mph69%30.12 "Hg10 mi
6:20 PM66 °FPassing clouds.7 mph78%30.12 "HgN/A
5:50 PM68 °FPassing clouds.5 mph78%30.12 "HgN/A
5:20 PM68 °FPassing clouds.7 mph73%30.12 "HgN/A
4:50 PM68 °FPassing clouds.7 mph73%30.12 "HgN/A
4:20 PM68 °FPassing clouds.8 mph69%30.15 "HgN/A
3:50 PM66 °FPassing clouds.8 mph68%30.15 "HgN/A
3:20 PM68 °FPassing clouds.9 mph64%30.15 "HgN/A
2:50 PM66 °FPassing clouds.8 mph73%30.15 "HgN/A
2:20 PM68 °FPassing clouds.7 mph69%30.15 "HgN/A
1:50 PM68 °FPassing clouds.9 mph69%30.15 "HgN/A
1:20 PM68 °FScattered clouds.10 mph69%30.15 "HgN/A
12:50 PM70 °FScattered clouds.7 mph69%30.12 "HgN/A
12:20 PM70 °FScattered clouds.1 mph69%30.12 "HgN/A
11:50 AM66 °FScattered clouds.7 mph78%30.15 "HgN/A
11:20 AM66 °FSunny.7 mph78%30.12 "Hg10 mi
10:50 AM66 °FSunny.7 mph78%30.12 "Hg10 mi
10:20 AM68 °FSunny.2 mph73%30.12 "Hg10 mi
9:50 AM66 °FSunny.No wind78%30.12 "Hg10 mi
9:20 AM64 °FSunny.2 mph83%30.12 "Hg10 mi
8:50 AM63 °FSunny.3 mph88%30.12 "Hg10 mi
8:20 AM61 °FSunny.2 mph94%30.12 "Hg10 mi
7:50 AM61 °FFog.3 mph88%30.12 "HgN/A
7:20 AM57 °FLight fog.1 mph94%30.12 "HgN/A
6:50 AM55 °FLight fog.1 mph100%30.12 "HgN/A
6:20 AM54 °FFog.2 mph100%30.12 "HgN/A
5:50 AM54 °FFog.1 mph94%30.12 "HgN/A
5:20 AM55 °FLight fog.1 mph94%30.12 "HgN/A
4:50 AM54 °FLight fog.1 mph100%30.12 "HgN/A
3:50 AM55 °FLight fog.No wind94%30.12 "HgN/A
2:50 AM55 °FLight fog.No wind94%30.12 "HgN/A
1:50 AM59 °FLight fog.No wind94%30.12 "HgN/A
12:50 AM59 °FOvercast.1 mph94%30.12 "HgN/A
11:50 PM
Fri, Jul 22
59 °FPartly cloudy.No wind94%30.12 "HgN/A
11:20 PM61 °FPartly sunny.2 mph94%30.12 "HgN/A
Weather by CustomWeather, © 2016

See weather overviewHow to use our weather pages